Regional Weather Roundup
Issued by NWS Charleston, WV

Home | Current Version | Previous Version | Graphics & Text | Print | Product List | Glossary On
Versions: 1 2 3 4 5 6 7 8 9 10 11 12 13 14 15 16 17 18 19 20 21 22 23 24 25 26 27 28 29 30 31 32 33 34 35 36 37 38 39 40 41 42 43 44 45 46 47 48 49 50
000
ASUS41 KRLX 232110
RWRRLX
West Virginia Regional Weather Roundup
National Weather Service Charleston WV
500 PM EDT TUE AUG 23 2016

Note: "fair" indicates few or no clouds below 12,000 feet with no
significant weather and/or obstructions to visibility.

WVZ003-232200-
Northern Panhandle of West Virginia

CITY           SKY/WX    TMP DP  RH WIND       PRES   REMARKS
WHEELING       SUNNY     80  56  43 SE8       30.27F
$$

WVZ009-232200-
Northwest West Virginia

CITY           SKY/WX    TMP DP  RH WIND       PRES   REMARKS
PARKERSBURG    SUNNY     84  56  38 VRB6      30.27F
$$

WVZ006-232200-
Western West Virginia

CITY           SKY/WX    TMP DP  RH WIND       PRES   REMARKS
HUNTINGTON     SUNNY     83  59  44 NE5       30.24F
$$

WVZ015-232200-
West Central West Virginia

CITY           SKY/WX    TMP DP  RH WIND       PRES   REMARKS
CHARLESTON     MOSUNNY   84  60  44 W5        30.24F
$$

WVZ022-031-232200-
North Central West Virginia

CITY           SKY/WX    TMP DP  RH WIND       PRES   REMARKS
CLARKSBURG     SUNNY     81  58  45 W8        30.27F
MORGANTOWN     MOSUNNY   83  57  41 VRB6      30.28S
$$

WVZ025-035-042-045-232200-
Southern West Virginia

CITY           SKY/WX    TMP DP  RH WIND       PRES   REMARKS
BECKLEY        PTSUNNY   79  59  50 VRB5      30.32F
LOGAN            N/A     81  61  50 CALM      30.26F
BLUEFIELD      SUNNY     77  58  51 SW7       30.34F
LEWISBURG      PTSUNNY   77  58  51 S6        30.33S
$$

WVZ047-232200-
Northern Mountains of West Virginia

CITY           SKY/WX    TMP DP  RH WIND       PRES   REMARKS
ELKINS         SUNNY     81  56  42 W8        30.30F
$$

WVZ052-232200-
Eastern Panhandle of West Virginia

CITY           SKY/WX    TMP DP  RH WIND       PRES   REMARKS
MARTINSBURG    SUNNY     81  61  50 VRB7      30.27F
PETERSBURG     PTSUNNY   83  62  48 SE5       30.25F
$$




USA.gov is the U.S. government's official web portal to all federal, state and local government web resources and services.